Wetterübersicht - Miehlen Rheinland Pfalz     220 m über NN
Gesetzliche Zeit

Datum Montag, 30. Januar 2023
Aktualisierung von 00:00 Uhr bis 24:00 Uhr alle 5 Minuten.
Zeit 13:15 (-1h = UTC-Zeit)
Temperatur Außen 2m Höhe aktuell
4,7 °C
Min.(00:00)
-0,3 °C
Vorjahr(30)
30
Max.(12:54)
4,9 °C
Vorjahr(30)
30
Durchschnitt
0,1 °C
Vorjahr
0,1 °C
Statistik Daten ab 2023
Min.
Min. (30.01.2023)
-0,3 °C
Max. (30.01.2023)
-0,3 °C
Durchschnitt(30.01.2023)
1,3 °C
Statistik Daten ab 2023
Max.
Min. (30.01.2023)
3,6 °C
Max. (30.01.2023)
3,6 °C
Durchschnitt(30.01.2023)
1,3 °C
Gras-Temperatur (+5cm) aktuell
5,0 °C
Min.(00:00)
-0,6 °C
Vorjahr(30)
30
Max.(12:36)
10,0 °C
Vorjahr(30)
30
Durchschnitt
0,4 °C
Vorjahr
0,4 °C
Statistik Daten ab 2023
Min.
Min.(30.01.2023)
-0,6 °C
Max. (30.01.2023)
-0,6 °C
Durchschnitt(30.01.2023)
1,2 °C
Statistik Daten ab 2023
Max.
Min.(30.01.2023)
5,0 °C
Max. (30.01.2023)
5,0 °C
Durchschnitt(30.01.2023)
1,2 °C
Luftfeuchte Außen 2m Höhe aktuell
77 %
Min.(13:04)
76 %
Max.(04:56)
88 %
Durchschnitt
81 %
Taupunkt aktuell
1,0 °C
Min.(00:00)
-3,3 °C
Max.(12:34)
1,6 °C
Durchschnitt
-2,8 °C
Luftdruck
aktuell
1018,8 hPa
gleichbleibend

-0,4 hPa/3h
Min.(13:07)
1018,8 hPa
Max.(00:07)
1024,1 hPa
Durchschnitt
1023,5 hPa
-0,2 hPa/1h -0,5 hPa/2h -0,6 hPa/6h -4,3 hPa/12h -9,5 hPa/24h
Wettervorhersage sonnig
Wettervorhersage VantagePro Meistens klar und kühler.
Persönliches Wohlbefinden leichter Kältestress (3)
Windchill aktuell
2,6 °C
Min.(05:18)
-2,2 °C
Vorjahr(30)
30
Max.(12:54)
2,8 °C
Vorjahr(30)
30
Durchschnitt
-0,5 °C
Vorjahr
-0,5 °C
WindBöen aktuell
16,1 km/h (3 Bft)
Max.(10:37)
W-SW 27,0 km/h
Vorjahr(30)
30
Durchschnitt
6,7 km/h (2 Bft)
Vorjahr
6,7 km/h
Höchste WindBöe letzte Stunde
23,4 km/h
letzte 3 Stunden
27,0 km/h
letzte 6 Stunden
27,0 km/h
Windgeschwindigkeit aktuell
8,9 km/h (2 Bft)
Max.(05:18)
W-SW 10,9 km/h
Vorjahr(30)
30
Durchschnitt
3,3 km/h (1 Bft)
Vorjahr
3,3 km/h
Windrichtung 259 ° / W dominierend
W-SW
Seegang 2 - ruhige See
Niederschlag
letzte Std. 0,0 l/m²
aktueller Tag 0,2 l/m²
aktuelle Woche 0,2 l/m²
aktueller Monat 10,4 l/m²
letzter Monat 0,0 l/m²
Januar Vorjahr 0,0 l/m²
aktuelles Jahr 10,4 l/m²
Regen / Jahr 7 Tage
Niederschl.-Dauer:
1 Minuten
Niederschl.-Dauer letzte Stunde:
0 min
Niederschl.-Dauer letzte 3 Stunden:
0 min
Niederschl.-Dauer Monat:
(bis Vortag)
52 Minuten
Trockenzeiten
Längste Trockenzeit 23.01.2023, 18:16 Uhr
bis
27.01.2023 00:09 Uhr
Dauer: 3 Tage, 5 Stunden, 53 Minuten
Letzter Niederschlag am 30.01.2023 um 09:53 Uhr
Trocken seit 3 Stunden, 22 Minuten
Kälteperioden
Letzte Dauerfrostperiode 29.01.2023 15:50 Uhr
bis
30.01.2023 00:59 Uhr
Dauer: 9 Stunden, 8 Minuten
Längste Dauerfrostperiode Jahr 25.01.2023 01:00 Uhr
bis
26.01.2023 23:48 Uhr
Dauer: 1 Tag, 22 Stunden, 48 Minuten
Mond
Alter des Mondes9 Tage, 3 Stunden, 35 Minuten
Mondaufgang11:49
Mondzenit19:57
Monduntergang03:10
MondphaseÝ 68%
(0% = Neumond, 100% = Vollmond)
letztes Viertel17:01    13. Februar 2023
erstes Viertel09:06    27. Februar 2023
nächster Vollmond19:29    5. Februar 2023
nächster Neumond08:06    20. Februar 2023
Sonne
Sonnenaufgang08:06
Sonnenzenit12:41
Sonnenhöchststand22,123 °
Sonnenintensität aktuell534 W/m²
Sonnenuntergang17:18
Sonnenaufgang morgen08:04    31. Januar 2023
Tageslänge09:12
Bewölkungsgrad -- %
Sonnenschein
Sonnenschein 30.01. Vorjahr
Sonnenschein Woche (bis Vortag)
Sonnenschein Monat (bis Vortag)
Sichtweite5-10 km
Die dargestellten Werte repräsentieren die Daten der letzten 24 Stunden! Der Luftdruck ist auf Meereshöhe bezogen!
Die Mond-/Sonnen-Daten beziehen sich auf die Standortkoordinaten von 50° 13' 12" Nord  -  7° 49' 12" Ost
Zeit --> Mitteleuropäische Zeit
Die Wettervorhersage wurde berechnet - ohne Gewähr!

          Aussen-    Aussen                                        UV                    Wind                              
Zeit     tempera.   Feuchte   Luftdruck   Taupunkt  Windchill      Index        Wind     richtung     Sonne          Regen        
----------------------------------------------------------------------------------------------------------------------------
14:00     -1,3 °C      72 %  1028,3 hPa    -5,7 °C    -1,3 °C      --           1,6 km/h        S      --          0,0 l/m²   
15:00     -0,2 °C      70 %  1027,9 hPa    -5,0 °C    -0,2 °C      --           1,6 km/h       SW      --          0,0 l/m²   
16:00     -0,3 °C      72 %  1027,0 hPa    -4,7 °C    -0,3 °C      --           1,6 km/h        S      --          0,0 l/m²   
17:00     -1,3 °C      76 %  1026,7 hPa    -5,0 °C    -1,3 °C      --           0,0 km/h     S-SW      --          0,0 l/m²   
18:00     -3,0 °C      83 %  1027,3 hPa    -5,5 °C    -3,0 °C      --           0,0 km/h     S-SW      --          0,0 l/m²   
19:00     -3,1 °C      84 %  1027,1 hPa    -5,4 °C    -3,1 °C      --           0,0 km/h     S-SW      --          0,0 l/m²   
20:00     -2,9 °C      83 %  1026,8 hPa    -5,4 °C    -2,9 °C      --           1,6 km/h     S-SW      --          0,0 l/m²   
21:00     -2,0 °C      80 %  1026,1 hPa    -5,0 °C    -2,0 °C      --           0,0 km/h     S-SO      --          0,0 l/m²   
22:00     -1,3 °C      79 %  1025,3 hPa    -4,5 °C    -1,3 °C      --           0,0 km/h     S-SO      --          0,0 l/m²   
23:00     -0,3 °C      80 %  1024,3 hPa    -3,3 °C    -0,3 °C      --           3,6 km/h       SW      --          0,0 l/m²   
00:00     -0,3 °C      80 %  1023,9 hPa    -3,3 °C    -0,3 °C      --           1,6 km/h     S-SW      --          0,0 l/m²   
01:00      0,0 °C      81 %  1023,5 hPa    -2,9 °C    -1,7 °C      --           5,2 km/h     N-NW      --          0,0 l/m²   
02:00      0,2 °C      81 %  1022,8 hPa    -2,7 °C     0,2 °C      --           1,6 km/h        S      --          0,0 l/m²   
03:00      0,4 °C      83 %  1021,7 hPa    -2,1 °C     0,4 °C      --           3,6 km/h        W      --          0,0 l/m²   
04:00      0,7 °C      84 %  1021,5 hPa    -1,7 °C    -0,9 °C      --           5,2 km/h       SW      --          0,0 l/m²   
05:00      1,1 °C      85 %  1020,8 hPa    -1,1 °C    -1,2 °C      --           7,3 km/h       NW      --          0,0 l/m²   
06:00      1,1 °C      85 %  1020,0 hPa    -1,1 °C     1,1 °C      --           3,6 km/h        W      --          0,0 l/m²   
07:00      1,3 °C      86 %  1019,3 hPa    -0,8 °C     1,3 °C      --           1,6 km/h       SO      --          0,0 l/m²   
08:00      1,8 °C      85 %  1019,5 hPa    -0,4 °C     1,8 °C      --           1,6 km/h     W-NW      --          0,0 l/m²   
09:00      1,9 °C      86 %  1019,4 hPa    -0,2 °C     1,9 °C      --           3,6 km/h        W      --          0,0 l/m²   
10:00      2,5 °C      85 %  1019,2 hPa     0,2 °C     0,4 °C      --           7,4 km/h        W      --          0,2 l/m²   
11:00      2,9 °C      84 %  1019,5 hPa     0,5 °C     0,4 °C      --           8,9 km/h        W      --          0,0 l/m²   
12:00      3,6 °C      84 %  1019,0 hPa     1,2 °C     0,8 °C      --          10,9 km/h        W      --          0,0 l/m²   
13:00      4,9 °C      77 %  1019,0 hPa     1,2 °C     2,3 °C      --          10,9 km/h       NW      --          0,0 l/m²   
----------------------------------------------------------------------------------------------------------------------------
Durch.     0,1 °C      81 %  1023,5 hPa    -2,8 °C    -0,5 °C                   3,3 km/h                           0,2 l/m²

Min.      -3,3 °C      69 %  1018,8 hPa    -5,7 °C    -3,3 °C
Zeit       18:21     15:01      13:07       14:00     18:21

Max.       4,9 °C      88 %  1028,3 hPa     1,6 °C                             27,0 km/h               --     
Zeit       12:54     04:56      14:00       12:34                              10:37                   - - 

© 1999-2022 Werner Krenn - Wetterstation Bedien- und Auswertesoftware - V2.99.9.0

Jahres-Eistage (Tmax < 0°C) 3 Vorjahres-Eistage (Tmax < 0°C) - -
Jahres-Frostage (Tmin <= 0°C) 14 Vorjahres-Frostage (Tmin <= 0°C) - -
Kalte Tage des Jahres (Tmax < 10°C) 15 Kalte Tage des Vorjahres (Tmax < 10°C) - -
Jahres-Sommertage (Tmax >= 25°C) 0 Vorjahres-Sommertage (Tmax >= 25°C) - -
Heiße Tage des Jahres (Tmax >= 30°C) 0 Heiße Tage Vorjahr (Tmax >= 30°C) - -